[[{"header":{"parameterUnit":"m.s-1","parameterCategory":1,"la1":30.2991,"la2":30.254,"lo1":-89.0895,"lo2":-89.0444,"dy":0.0017,"dx":0.0017,"nx":28,"ny":28,"refTime":"2025-03-15T03:00:00:Z","depth":0,"parameterNumber":2,"parameterNumberName":"U-component_of_WINDS"},"data":[0,0,0,0,0,0,0,0,0,0,0,0,0,0,0,0,0,0,0,0,0,0,0,0,0,0,0,0,0,0,0,0,0,0,0,0,0,0,0,0,0,0,0,0,0,0,0,0,0,0,0,0,0,0,0,0,0,0,-1.6058,-1.6059,0,-1.6113,-1.6113,-1.6114,-1.6161,-1.6161,-1.6162,-1.6162,-1.6213,-1.6214,-1.6215,0,0,0,0,0,0,0,0,0,0,0,0,0,-1.5992,-1.5993,-1.6058,-1.6059,-1.606,-1.6113,-1.6113,-1.6114,-1.6161,-1.6161,-1.6162,-1.6162,-1.6213,-1.6214,-1.6215,0,0,0,0,0,0,0,0,0,0,0,0,0,-1.603,-1.5993,-1.6058,-1.6089,-1.6093,-1.6112,-1.6113,-1.6114,-1.616,-1.6161,-1.6162,-1.6163,-1.6213,-1.6214,-1.6215,-1.6207,0,0,-1.6219,-1.622,0,0,0,0,0,0,0,0,-1.6028,-1.6033,-1.6084,-1.6087,-1.6091,-1.6131,-1.6109,-1.6145,-1.616,-1.6135,-1.6162,-1.6163,-1.6185,-1.6189,-1.6197,-1.6209,-1.6212,-1.6219,-1.622,-1.6221,-1.6221,0,0,0,0,0,0,0,-1.6025,-1.6031,-1.608,-1.6085,-1.6089,-1.61,-1.6106,-1.6116,-1.6154,-1.6137,-1.614,-1.6146,-1.6187,-1.6195,-1.6198,-1.6212,-1.6219,-1.622,-1.6221,-1.6222,-1.6221,-1.6221,0,0,0,0,0,0,-1.6019,-1.6028,-1.6078,-1.6081,-1.6061,-1.61,-1.6107,-1.6117,-1.6154,-1.6161,-1.6146,-1.6148,-1.6193,-1.6197,-1.62,-1.6193,-1.6221,-1.6222,-1.6222,-1.6222,-1.6221,-1.622,0,0,0,0,0,0,-1.6017,-1.6023,-1.6076,-1.6056,-1.6064,-1.61,-1.6111,-1.6118,-1.6126,-1.6161,-1.6168,-1.6148,-1.6194,-1.6198,-1.6205,-1.6196,-1.6222,-1.6224,-1.6223,-1.6222,-1.6221,-1.6179,0,0,0,0,0,0,-1.6015,-1.6022,-1.602,-1.6056,-1.6064,-1.6081,-1.6111,-1.6118,-1.6129,-1.6133,-1.6165,-1.6171,-1.6195,-1.6203,-1.6207,-1.6198,-1.6225,-1.6224,-1.6223,-1.6221,-1.6181,-1.6177,-1.6172,0,0,0,0,0,-1.6012,-1.6005,-1.6019,-1.6025,-1.6063,-1.608,-1.6085,-1.6114,-1.6128,-1.6126,-1.6148,-1.617,-1.6197,-1.6204,-1.6208,-1.6199,-1.6225,-1.6223,-1.6221,-1.6183,-1.6177,-1.6173,0,0,0,0,0,0,-1.5965,-1.601,-1.6027,-1.6031,-1.6052,-1.6088,-1.6086,-1.6107,-1.6123,-1.6126,-1.616,-1.6167,-1.617,-1.6186,-1.6193,-1.6194,-1.6213,-1.6212,-1.6183,-1.6178,-1.6173,-1.6169,-1.6226,0,0,0,0,0,-1.5955,-1.5967,-1.6005,-1.6005,-1.6015,-1.6049,-1.6057,-1.6078,-1.61,-1.6109,-1.6132,-1.6152,-1.6165,-1.6172,-1.6186,-1.6184,-1.6192,-1.6181,-1.6176,-1.6172,-1.6171,-1.6171,-1.6166,-1.6215,-1.6215,-1.6215,0,0,-1.5934,-1.596,-1.5965,-1.5996,-1.6015,-1.6025,-1.6056,-1.6065,-1.6073,-1.611,-1.6118,-1.6136,-1.616,-1.6163,-1.6165,-1.6176,-1.6159,-1.617,-1.6167,-1.6167,-1.6168,-1.6164,-1.616,-1.6213,-1.6214,-1.6214,0,0,-1.5902,-1.5923,-1.5926,-1.5944,-1.5973,-1.5996,-1.5996,-1.603,-1.6044,-1.6053,-1.6082,-1.6091,-1.6112,-1.6129,-1.614,-1.6115,-1.6135,-1.6119,-1.6095,-1.6094,-1.6091,-1.6087,-1.6078,-1.6074,-1.6117,-1.6117,-1.6117,0,-1.5872,-1.589,-1.5924,-1.5932,-1.5944,-1.5981,-1.5983,-1.5999,-1.603,-1.6037,-1.6049,-1.6078,-1.6097,-1.6104,-1.6098,-1.6106,-1.6107,-1.6115,-1.6089,-1.6086,-1.6083,-1.6075,-1.6071,-1.6115,-1.6115,-1.6115,-1.6116,0,-1.5852,-1.5864,-1.5862,-1.5893,-1.5906,-1.591,-1.5944,-1.5952,-1.5972,-1.5994,-1.6003,-1.6027,-1.6046,-1.605,-1.6069,-1.606,-1.6065,-1.6083,-1.6103,-1.6076,-1.6068,-1.6066,-1.6112,-1.6112,-1.6113,-1.6114,0,0,-1.5789,-1.5841,-1.5839,-1.5854,-1.5889,-1.5898,-1.5905,-1.5926,-1.5932,-1.5952,-1.5958,-1.5976,-1.5993,-1.6005,-1.6027,-1.6027,-1.6005,-1.6044,-1.6045,-1.6035,-1.5996,-1.5982,-1.5978,-1.6019,-1.6019,-1.6019,-1.5994,0,-1.5762,-1.5778,-1.5809,-1.5814,-1.5825,-1.5861,-1.5866,-1.5888,-1.5908,-1.592,-1.5942,-1.5954,-1.5975,-1.5983,-1.5985,-1.6007,-1.5998,-1.601,-1.6024,-1.6024,-1.6016,-1.5974,-1.5959,-1.5935,-1.5991,-1.5991,-1.599,0,-1.5732,-1.5752,-1.5759,-1.5794,-1.58,-1.5805,-1.5827,-1.5838,-1.5863,-1.5878,-1.5892,-1.5916,-1.5924,-1.5944,-1.5955,-1.5963,-1.597,-1.5982,-1.5982,-1.5984,-1.6005,-1.5974,-1.5928,-1.5924,-1.5986,-1.5987,-1.5987,0,-1.5685,-1.5714,-1.5722,-1.5733,-1.5775,-1.5777,-1.5794,-1.582,-1.5831,-1.585,-1.5857,-1.5876,-1.5886,-1.59,-1.5928,-1.594,-1.5935,-1.5957,-1.5947,-1.5946,-1.5943,-1.5943,-1.5897,-1.595,-1.595,-1.595,-1.595,0,-1.5651,-1.5653,-1.5702,-1.5706,-1.571,-1.5746,-1.5748,-1.5768,-1.5791,-1.58,-1.5831,-1.5838,-1.5876,-1.5886,-1.5908,-1.5914,-1.5918,-1.593,-1.5935,-1.5926,-1.5925,-1.5931,-1.5933,-1.5949,-1.5949,-1.5949,-1.5949,0,-1.5599,-1.5631,-1.5642,-1.5681,-1.5691,-1.5692,-1.5725,-1.573,-1.5753,-1.5763,-1.5768,-1.5803,-1.5818,-1.5848,-1.587,-1.5885,-1.5885,-1.5896,-1.5877,-1.588,-1.5868,-1.5868,-1.5823,-1.5819,-1.5875,-1.5874,-1.5874,0,-1.5574,-1.5577,-1.5617,-1.5626,-1.5642,-1.5656,-1.5668,-1.5703,-1.5714,-1.5743,-1.5745,-1.5762,-1.5778,-1.58,-1.5827,-1.5844,-1.5855,-1.5838,-1.5857,-1.5848,-1.5854,-1.5853,-1.5853,-1.5833,-1.5832,-1.5832,-1.5831,0,-1.5527,-1.5543,-1.556,-1.5583,-1.5596,-1.5615,-1.5636,-1.5641,-1.5681,-1.5691,-1.5707,-1.572,-1.5744,-1.576,-1.5782,-1.5798,-1.5821,-1.5825,-1.5824,-1.5814,-1.5803,-1.5808,-1.5864,-1.5826,-1.5826,-1.5827,-1.5827,-1.5827,-1.5488,-1.5492,-1.5521,-1.5539,-1.5559,-1.5577,-1.5585,-1.5609,-1.5624,-1.5648,-1.5667,-1.5682,-1.5707,-1.5739,-1.5754,-1.5765,-1.5776,-1.5774,-1.5773,-1.5771,-1.5767,-1.5802,-1.5769,-1.5769,-1.5769,-1.577,-1.577,0,-1.5442,-1.5463,-1.5479,-1.5507,-1.5521,-1.5544,-1.5568,-1.5577,-1.559,-1.5613,-1.5628,-1.5647,-1.5664,-1.5693,-1.5712,-1.5715,-1.5726,-1.5719,-1.5718,-1.5721,-1.5757,-1.5756,-1.571,-1.571,-1.571,-1.571,-1.571,-1.571,-1.5419,-1.5428,-1.5448,-1.5467,-1.5488,-1.5504,-1.5516,-1.5533,-1.5551,-1.5571,-1.5586,-1.5606,-1.5631,-1.5652,-1.5668,-1.5676,-1.5681,-1.567,-1.5681,-1.5713,-1.5719,-1.5724,-1.5724,-1.5671,-1.5671,-1.5645,-1.5645,-1.5644]},{"header":{"parameterUnit":"m.s-1","parameterCategory":1,"la1":30.2991,"la2":30.254,"lo1":-89.0895,"lo2":-89.0444,"dy":0.0017,"dx":0.0017,"nx":28,"ny":28,"refTime":"2025-03-15T03:00:00:Z","depth":0,"parameterNumber":3,"parameterNumberName":"V-component_of_WINDS"},"data":[0,0,0,0,0,0,0,0,0,0,0,0,0,0,0,0,0,0,0,0,0,0,0,0,0,0,0,0,0,0,0,0,0,0,0,0,0,0,0,0,0,0,0,0,0,0,0,0,0,0,0,0,0,0,0,0,0,0,10.1031,10.1032,0,10.1157,10.1159,10.116,10.1146,10.1144,10.1142,10.114,10.1269,10.1274,10.1279,0,0,0,0,0,0,0,0,0,0,0,0,0,10.0778,10.0783,10.103,10.1032,10.1034,10.1157,10.1159,10.116,10.1147,10.1144,10.1142,10.1139,10.1267,10.1273,10.1279,0,0,0,0,0,0,0,0,0,0,0,0,0,10.0894,10.0784,10.103,10.1042,10.1044,10.1157,10.1159,10.1161,10.1147,10.1144,10.1141,10.1138,10.1265,10.1273,10.128,10.1389,0,0,10.1305,10.1308,0,0,0,0,0,0,0,0,10.0888,10.0904,10.1038,10.1041,10.1044,10.1133,10.1117,10.1237,10.1148,10.1108,10.114,10.1137,10.1226,10.1237,10.1267,10.1395,10.1401,10.1305,10.131,10.1313,10.1316,0,0,0,0,0,0,0,10.088,10.0898,10.108,10.104,10.1044,10.1041,10.1054,10.114,10.1182,10.1111,10.111,10.1126,10.1227,10.1259,10.127,10.1403,10.1305,10.1312,10.1317,10.132,10.1631,10.1634,0,0,0,0,0,0,10.0869,10.0892,10.1076,10.1084,10.0957,10.1048,10.1063,10.1107,10.1181,10.119,10.1128,10.1125,10.1247,10.1261,10.1274,10.141,10.1313,10.1321,10.1325,10.1627,10.1632,10.1635,0,0,0,0,0,0,10.0864,10.0886,10.1071,10.0988,10.1011,10.1055,10.1106,10.1111,10.1144,10.1194,10.1201,10.1154,10.1246,10.1263,10.1362,10.1414,10.1324,10.1332,10.1623,10.1629,10.1634,10.1679,0,0,0,0,0,0,10.0856,10.0884,10.0925,10.0989,10.1016,10.1156,10.1109,10.1116,10.1158,10.1155,10.122,10.1228,10.1245,10.135,10.137,10.1423,10.1338,10.1619,10.1626,10.1632,10.1673,10.1685,10.1696,0,0,0,0,0,10.0847,10.0931,10.0927,10.0949,10.1068,10.1159,10.1175,10.1193,10.1162,10.1205,10.1237,10.1226,10.1405,10.136,10.1382,10.1439,10.1616,10.1624,10.1631,10.1668,10.1683,10.1695,0,0,0,0,0,0,10.0871,10.094,10.0936,10.1043,10.1096,10.1157,10.1211,10.1207,10.1269,10.1263,10.1282,10.1297,10.1397,10.1428,10.1377,10.155,10.1506,10.1519,10.1527,10.1541,10.1552,10.1543,10.1344,0,0,0,0,0,10.0889,10.0957,10.1013,10.1103,10.113,10.1166,10.1206,10.1216,10.1271,10.1293,10.1332,10.1386,10.1455,10.1499,10.1565,10.1677,10.1693,10.1727,10.1739,10.1748,10.1759,10.1824,10.1841,10.1661,10.1661,10.1661,0,0,10.0926,10.0972,10.1014,10.1109,10.1151,10.1222,10.1184,10.126,10.1314,10.1304,10.14,10.1432,10.1493,10.16,10.1649,10.1628,10.1812,10.1758,10.1764,10.1771,10.1834,10.1851,10.1866,10.1667,10.1666,10.1665,0,0,10.1031,10.1071,10.1152,10.1196,10.126,10.1284,10.1304,10.1367,10.1388,10.1485,10.1481,10.1544,10.1661,10.1706,10.1745,10.1871,10.1864,10.1891,10.195,10.2014,10.2028,10.204,10.2088,10.2104,10.1902,10.1902,10.1902,0,10.1069,10.1175,10.1194,10.1272,10.1315,10.1311,10.1394,10.1435,10.1517,10.1548,10.1524,10.1673,10.1714,10.1833,10.1865,10.1895,10.1919,10.1884,10.2024,10.2037,10.2049,10.2095,10.2112,10.1905,10.1905,10.1905,10.1904,0,10.122,10.1295,10.1352,10.1434,10.1483,10.1563,10.1595,10.1643,10.1649,10.1676,10.1777,10.1827,10.1904,10.1933,10.1938,10.2054,10.204,10.202,10.1976,10.2069,10.2112,10.213,10.191,10.1909,10.1908,10.1907,0,0,10.1341,10.1435,10.1456,10.1495,10.1567,10.1626,10.1706,10.1783,10.1825,10.1883,10.1953,10.2054,10.2037,10.2081,10.2092,10.2147,10.2248,10.2121,10.2123,10.2145,10.2381,10.2397,10.2417,10.2243,10.2247,10.2249,10.2377,0,10.1455,10.1598,10.1619,10.1746,10.1817,10.1816,10.1887,10.194,10.1968,10.2032,10.2063,10.2136,10.2107,10.2134,10.2189,10.2224,10.2296,10.2215,10.2309,10.2313,10.2295,10.2439,10.2455,10.2573,10.2394,10.2396,10.2399,0,10.1606,10.167,10.1805,10.1871,10.1902,10.1965,10.2039,10.21,10.2161,10.2178,10.2229,10.2234,10.232,10.2273,10.2392,10.2336,10.2376,10.24,10.2405,10.2415,10.2362,10.2455,10.261,10.2629,10.2425,10.2423,10.2421,0,10.1684,10.1804,10.1901,10.1933,10.2013,10.2058,10.2093,10.2151,10.2197,10.2262,10.2293,10.2366,10.2406,10.2464,10.249,10.2452,10.2608,10.2562,10.2626,10.2626,10.2659,10.2657,10.2825,10.2683,10.2683,10.2682,10.2682,0,10.1809,10.1892,10.1937,10.1997,10.2091,10.2115,10.2207,10.2241,10.2293,10.236,10.2363,10.2427,10.2456,10.2524,10.2545,10.2642,10.266,10.2677,10.2682,10.2678,10.2676,10.2705,10.2698,10.2687,10.2686,10.2685,10.2684,0,10.1912,10.1945,10.2052,10.2119,10.2138,10.2205,10.2263,10.2322,10.235,10.2436,10.2457,10.2503,10.2583,10.2615,10.2713,10.2727,10.284,10.2837,10.282,10.2822,10.2884,10.2879,10.3078,10.3107,10.2944,10.2945,10.2947,0,10.199,10.2054,10.213,10.2176,10.2213,10.2286,10.2334,10.2361,10.2411,10.2487,10.2537,10.2618,10.2684,10.2814,10.2856,10.2932,10.2932,10.2997,10.2943,10.2939,10.2936,10.2933,10.294,10.3007,10.3009,10.301,10.3011,0,10.2126,10.2141,10.221,10.2286,10.2344,10.2405,10.2464,10.2501,10.2537,10.2594,10.2677,10.2729,10.2831,10.2912,10.2991,10.3028,10.3027,10.3028,10.3047,10.3044,10.3032,10.3042,10.2849,10.3023,10.3022,10.3021,10.302,10.302,10.2221,10.2279,10.2343,10.2421,10.2469,10.2525,10.2585,10.2622,10.2692,10.2778,10.279,10.288,10.2942,10.3049,10.3089,10.3161,10.3144,10.3171,10.3178,10.3185,10.3191,10.302,10.3175,10.3175,10.3175,10.3174,10.3174,0,10.2359,10.2401,10.2472,10.2557,10.2619,10.2613,10.268,10.2732,10.2812,10.287,10.2936,10.3034,10.3114,10.3163,10.3244,10.3292,10.3294,10.3312,10.331,10.3319,10.32,10.3176,10.331,10.331,10.331,10.331,10.331,10.331,10.2439,10.2539,10.2561,10.2685,10.2726,10.2816,10.2854,10.2907,10.2955,10.3064,10.3131,10.3163,10.3219,10.3304,10.3378,10.339,10.3421,10.3441,10.3453,10.3341,10.3327,10.3313,10.3292,10.3447,10.3447,10.3566,10.3568,10.3568]}]]